Flag for Australia Weather past 2 weeks in Brisbane, Queensland, Australia

Now
59 °F

Fog.


Feels Like: 59 °F
Forecast: 55 / 76 °F
Wind: 1 mph from Southwest

Location: Brisbane Airport M. O

Current Time: May 29, 2015 at 12:18:51 AM

Latest Report: May 29, 2015 at 12:00 AM


Visibility: N/A

Pressure: 30.21 "Hg

Humidity: 94%

Dew point: 57 °F

Location of BrisbaneLocation

Historic Weather in Brisbane — Graph

°F

Brisbane temperature yesterday

Maximum temperature yesterday: 73 °F (at 12:00 PM)
Minimum temperature yesterday: 55 °F (at 6:00 AM)
Average temperature yesterday: 63 °F

Past Weeks' High & Low Weather Summary

 TemperatureHumidityPressure
High77 °F (May 21, 12:30 PM)100% (May 17, 5:00 AM)30.42 "Hg (May 17, 5:00 AM)
Low46 °F (May 14, 5:30 AM)28% (May 14, 2:30 PM)29.95 "Hg (May 22, 2:30 PM)
Average64 °F74%30.23 "Hg
* Reported May 13 11:30 PM — May 28 11:00 PM, Brisbane, Weather by CustomWeather, © 2015

Note: Actual official high and low records may vary slightly from our data, if they occured in-between our weather recording intervals... More about our weather records

Advertising

Brisbane weather history for previous 24 hours

 ConditionsComfort  
Time TempWeatherWind HumidityBarometerVisibility
11:00 PM
Thu, May 28
59 °FFog.3 mph100%30.24 "HgN/A
10:30 PM59 °FFog.5 mph100%30.24 "HgN/A
10:00 PM61 °FFog.1 mph94%30.24 "HgN/A
9:30 PM63 °FFog.1 mph94%30.24 "HgN/A
9:00 PM61 °FFog.5 mph100%30.24 "HgN/A
8:30 PM63 °FFog.3 mph94%30.24 "HgN/A
8:00 PM63 °FFog.1 mph94%30.24 "HgN/A
7:30 PM64 °FFog.1 mph94%30.21 "HgN/A
7:00 PM64 °FPassing clouds.No wind94%30.21 "HgN/A
6:30 PM64 °FPassing clouds.6 mph88%30.21 "HgN/A
6:00 PM64 °FPassing clouds.6 mph94%30.18 "HgN/A
5:30 PM64 °FPassing clouds.6 mph94%30.18 "HgN/A
5:00 PM68 °FPassing clouds.8 mph78%30.18 "HgN/A
4:30 PM68 °FPassing clouds.9 mph73%30.18 "HgN/A
4:00 PM72 °FPassing clouds.8 mph61%30.15 "HgN/A
3:30 PM72 °FPassing clouds.9 mph57%30.15 "HgN/A
3:00 PM72 °FPassing clouds.9 mph65%30.15 "HgN/A
2:30 PM73 °FPassing clouds.12 mph61%30.15 "HgN/A
2:00 PM73 °FPassing clouds.10 mph65%30.15 "HgN/A
1:30 PM72 °FPassing clouds.10 mph57%30.18 "HgN/A
1:00 PM73 °FPassing clouds.3 mph53%30.18 "HgN/A
12:30 PM73 °FScattered clouds.3 mph57%30.21 "HgN/A
12:00 PM73 °FScattered clouds.7 mph61%30.21 "HgN/A
11:30 AM72 °FPassing clouds.6 mph65%30.24 "HgN/A
10:00 AM68 °FPassing clouds.8 mph73%30.27 "HgN/A
9:30 AM66 °FPassing clouds.9 mph78%30.27 "HgN/A
9:00 AM64 °FPassing clouds.10 mph83%30.27 "HgN/A
8:30 AM63 °FPassing clouds.12 mph88%30.24 "HgN/A
8:00 AM61 °FCool.9 mph88%30.24 "HgN/A
7:30 AM59 °FPassing clouds.9 mph94%30.24 "HgN/A
7:00 AM57 °FPassing clouds.8 mph94%30.21 "HgN/A
6:30 AM55 °FPassing clouds.8 mph100%30.21 "HgN/A
6:00 AM55 °FPassing clouds.8 mph100%30.21 "HgN/A
5:30 AM57 °FSunny.8 mph94%30.21 "Hg10 mi
5:00 AM57 °FClear.8 mph94%30.18 "Hg10 mi
4:30 AM57 °FClear.9 mph100%30.18 "Hg10 mi
4:00 AM57 °FClear.9 mph94%30.18 "Hg10 mi
3:30 AM59 °FClear.8 mph94%30.18 "Hg10 mi
3:00 AM57 °FClear.9 mph100%30.18 "Hg10 mi
2:30 AM57 °FClear.9 mph94%30.18 "Hg10 mi
2:00 AM59 °FClear.8 mph94%30.18 "Hg10 mi
1:30 AM57 °FClear.7 mph100%30.18 "Hg10 mi
1:00 AM57 °FPassing clouds.6 mph100%30.21 "HgN/A
12:30 AM59 °FPassing clouds.7 mph94%30.21 "HgN/A
12:00 AM61 °FPassing clouds.6 mph94%30.21 "HgN/A
Weather by CustomWeather, © 2015

See weather overviewHow to use our weather pages